Big Piney, WY

5:17 PM MDT on July 20, 2017 (GMT -0600)
Big Piney-Marbleton

Weather History for KBPI - October, 2013

Change the Weather History Date:

Saturday, October 5, 2013

  Actual Average Record
Temperature  
Mean Temperature 37 °F 42 °F  
Max Temperature 52 °F 60 °F 74 °F (1993)
Min Temperature 21 °F 25 °F 12 °F (2000)
Degree Days  
Heating Degree Days 28 23  
Month to date heating degree days 128 109  
Since 1 July heating degree days 566 860  
Cooling Degree Days 0 0  
Month to date cooling degree days 0 0  
Year to date cooling degree days 89 35  
Moisture  
Dew Point 21 °F    
Average Humidity 55    
Maximum Humidity 84    
Minimum Humidity 26    
Precipitation  
Precipitation 0.00 in 0.02 in 0.42 in (2007)
Month to date precipitation 0.24 0.11  
Year to date precipitation 4.07 5.55  
Sea Level Pressure  
Sea Level Pressure 30.36 in    
Wind  
Wind Speed 10 mph (North)    
Max Wind Speed 28 mph    
Max Gust Speed 32 mph    
Visibility 10 miles    
Events      
T = Trace of Precipitation, MM = Missing Value Source: NWS Daily Summary

Daily Weather History Graph

Daily Weather History Graph

Search for Another Location

Airport or City:

Trip Planner

Search our weather history database for the weather conditions in past years. The results will help you decide how hot, cold, wet, or windy it might be!

Date:

Astronomy

Oct. 05, 2013 Rise Set
Actual Time 7:22 AM MDT 6:54 PM MDT
Civil Twilight 6:54 AM MDT 7:22 PM MDT
Nautical Twilight 6:21 AM MDT 7:55 PM MDT
Astronomical Twilight 5:48 AM MDT 8:27 PM MDT
Moon 8:07 AM MDT (10/5) 7:13 PM MDT (10/5)
Length of Visible Light 12h 28m
Length of Day
11h 31m
New Moon, 1% of the Moon is Illuminated
Oct 5
New Moon
Oct 11
First Quarter
Oct 18
Full
Oct 26
Last Quarter
Nov 3
New

Hourly Weather History & Observations

Time (MDT) Temp. Windchill Dew Point Humidity Pressure Visibility Wind Dir Wind Speed Gust Speed Precip Events Conditions
12:53 AM 28.0 °F 21.7 °F 21.9 °F 78% 30.36 in 10.0 mi North 5.8 mph - N/A   Clear
1:53 AM 25.0 °F 19.3 °F 19.9 °F 81% 30.37 in 10.0 mi ENE 4.6 mph - N/A   Clear
2:53 AM 26.1 °F 16.8 °F 21.0 °F 81% 30.36 in 10.0 mi NNE 9.2 mph - N/A   Clear
3:53 AM 25.0 °F 15.5 °F 19.9 °F 81% 30.38 in 10.0 mi North 9.2 mph - N/A   Clear
4:53 AM 26.1 °F 15.0 °F 19.9 °F 78% 30.38 in 10.0 mi NNE 12.7 mph - N/A   Clear
5:53 AM 21.9 °F 13.4 °F 18.0 °F 85% 30.41 in 10.0 mi NNW 6.9 mph - N/A   Clear
6:53 AM 24.1 °F 18.2 °F 18.0 °F 77% 30.41 in 10.0 mi NNW 4.6 mph - N/A   Clear
7:53 AM 23.0 °F 18.4 °F 18.0 °F 81% 30.43 in 10.0 mi WSW 3.5 mph - N/A   Clear
8:53 AM 27.0 °F - 19.9 °F 75% 30.42 in 10.0 mi Calm Calm - N/A   Clear
9:53 AM 34.0 °F 31.0 °F 21.0 °F 59% 30.39 in 10.0 mi SSW 3.5 mph - N/A   Clear
10:53 AM 41.0 °F 38.0 °F 21.0 °F 45% 30.36 in 10.0 mi Variable 4.6 mph 16.1 mph N/A   Clear
11:53 AM 46.0 °F 37.8 °F 14.0 °F 28% 30.32 in 10.0 mi North 23.0 mph 29.9 mph N/A   Clear
12:53 PM 48.0 °F - 15.1 °F 27% 30.32 in 10.0 mi NNW 16.1 mph 26.5 mph N/A   Clear
1:53 PM 48.9 °F - 15.1 °F 26% 30.31 in 10.0 mi North 16.1 mph 25.3 mph N/A   Clear
2:53 PM 52.0 °F - 18.0 °F 26% 30.28 in 10.0 mi North 16.1 mph 24.2 mph N/A   Clear
3:53 PM 52.0 °F - 17.1 °F 25% 30.28 in 10.0 mi North 19.6 mph 26.5 mph N/A   Clear
4:53 PM 50.0 °F - 21.0 °F 32% 30.30 in 10.0 mi North 25.3 mph 32.2 mph N/A   Clear
5:53 PM 48.0 °F - 24.1 °F 39% 30.35 in 10.0 mi NNW 17.3 mph 26.5 mph N/A   Clear
6:53 PM 43.0 °F 36.0 °F 26.1 °F 51% 30.35 in 10.0 mi North 13.8 mph - N/A   Clear
7:53 PM 39.0 °F 36.8 °F 25.0 °F 57% 30.41 in 10.0 mi North 3.5 mph - N/A   Clear
8:53 PM 37.0 °F 32.4 °F 24.1 °F 59% 30.40 in 10.0 mi NE 5.8 mph - N/A   Clear
9:53 PM 34.0 °F 27.2 °F 25.0 °F 70% 30.40 in 10.0 mi North 8.1 mph - N/A   Clear
10:53 PM 34.0 °F 31.0 °F 25.0 °F 70% 30.36 in 10.0 mi North 3.5 mph - N/A   Clear
11:53 PM 33.1 °F - 24.1 °F 70% 30.35 in 10.0 mi Calm Calm - N/A   Clear